Theta_e
335 338 340 338 334 324 324 324 324 323 322 319 318 317 317 316 313 306 304 305 306 308 309 309 308 307 306 305 305 305 304 303 303 304 304 304 305 306 305 304 304 304 305
338 338 335 333 330 324 325 324 324 322 319 318 317 317 315 312 306 305 306 307 308 309 309 307 306 306 305 304 303 303 302 303 303 304 304 305 306 307 306 305 304 303 303
334 331 330 329 329 328 325 323 321 319 318 318 317 315 310 305 305 306 307 308 309 307 307 307 306 305 304 303 303 302 303 302 303 303 304 304 305 305 307 306 305 304 304
327 326 325 325 325 324 323 322 319 318 318 317 315 310 305 305 306 307 308 308 307 306 305 305 305 304 303 303 303 303 302 303 304 305 305 305 304 305 304 305 306 305 305
327 326 325 325 324 322 321 319 318 318 317 315 308 305 305 306 306 307 308 306 305 305 305 305 304 303 303 302 302 303 303 305 306 306 306 305 305 304 303 304 304 305 305
326 326 325 324 323 321 320 318 317 316 311 306 304 305 306 306 306 304 302 302 302 304 304 304 302 302 301 302 302 304 305 305 305 305 305 303 303 302 302 302 302 303 302
326 325 323 321 321 319 318 315 311 306 305 305 306 306 305 305 303 302 301 301 301 302 302 303 303 301 301 302 304 305 306 306 305 305 303 304 303 303 302 303 304 303 303
324 319 318 320 316 314 311 307 305 305 306 306 305 304 304 303 302 302 301 301 301 301 302 302 302 301 302 303 305 306 306 306 306 306 305 305 304 304 302 302 302 302 303
317 315 313 314 312 307 305 305 306 306 306 305 303 302 302 301 301 301 301 302 303 303 302 301 301 301 301 303 305 306 306 306 307 307 306 306 305 305 302 301 301 300 300
311 310 309 307 305 305 305 306 306 304 302 302 301 301 300 300 300 302 302 303 304 303 302 301 300 300 301 303 304 305 305 306 307 308 309 307 305 304 302 300 300 300 299
306 304 304 304 304 305 304 303 303 302 301 300 300 299 299 299 300 301 300 301 302 302 301 301 301 301 301 303 303 304 303 305 307 307 308 307 305 303 301 300 300 300 300
303 303 304 303 303 302 302 301 301 301 301 300 299 298 299 298 299 300 299 299 300 301 301 300 300 300 301 302 304 304 304 306 306 307 306 305 304 303 302 301 301 301 301
302 302 303 301 300 300 301 300 300 299 298 297 298 298 297 298 298 298 299 298 297 298 298 299 299 299 300 302 303 303 304 305 306 305 304 304 303 303 303 303 303 302 301
301 300 300 300 300 300 299 298 297 296 296 296 296 296 295 296 298 298 297 297 298 298 298 298 299 299 300 301 302 303 304 304 304 303 302 304 304 305 305 303 303 302 301
299 299 298 298 298 298 297 296 295 295 294 293 293 294 295 295 295 294 296 296 296 296 297 297 298 299 300 300 301 302 304 304 305 302 302 304 306 307 306 305 303 302 301
298 297 296 296 295 295 294 294 294 293 292 292 292 292 292 292 293 293 294 294 295 295 296 295 296 296 297 298 300 301 303 303 303 301 301 303 306 307 306 305 304 302 301
294 293 293 293 292 293 293 293 292 292 292 292 291 291 291 290 292 293 293 293 294 295 293 292 292 293 292 293 298 299 301 301 301 300 301 303 306 307 308 305 305 305 303
294 293 293 293 292 291 290 290 290 290 290 289 289 289 289 290 291 292 293 293 294 293 292 290 292 291 290 292 296 299 301 301 301 301 303 304 306 308 308 308 306 305 305
294 294 293 293 292 291 291 290 290 289 289 289 289 288 289 290 291 291 292 292 291 290 289 289 290 289 290 291 293 297 299 300 300 301 303 306 307 310 310 309 309 309 307
294 293 293 293 292 291 291 290 289 289 288 288 288 288 289 289 290 290 290 290 289 288 288 289 288 289 289 290 293 296 299 300 301 302 303 306 308 309 310 310 308 308 308
293 293 293 292 291 291 290 289 289 289 288 288 287 287 288 289 289 289 289 288 288 288 288 288 288 289 289 290 292 295 298 299 300 301 303 305 308 310 311 310 309 309 308
293 292 292 291 291 290 290 289 289 288 288 287 287 287 288 288 288 288 288 288 287 287 288 288 288 288 289 290 291 293 297 299 300 302 304 305 308 310 310 310 309 309 309
293 292 291 291 290 290 289 288 288 288 287 287 287 287 288 288 287 287 287 288 288 288 288 288 288 289 289 289 290 290 296 297 299 300 302 305 307 309 309 309 309 309 309
293 292 291 290 290 289 288 288 288 287 287 287 287 287 287 287 287 287 287 287 287 287 288 288 288 288 288 289 289 290 292 297 299 300 302 304 306 308 308 309 308 308 310
292 291 290 290 289 288 288 287 287 287 287 287 287 287 287 287 287 287 287 287 287 287 287 288 288 288 288 288 289 289 290 293 299 300 302 303 304 307 308 309 310 309 310
290 290 289 289 288 288 287 287 287 287 287 287 287 287 287 287 287 287 287 287 287 287 287 287 287 288 288 288 288 289 289 290 293 299 300 301 303 306 309 311 311 311 311
Wind_Speed
27 24 23 24 23 29 32 26 22 18 13 10 9 13 16 19 22 25 25 24 24 24 22 22 18 15 14 16 18 19 17 19 24 25 24 26 27 26 27 25 22 16 17
27 30 24 25 30 33 29 25 20 14 11 10 12 15 18 22 23 24 24 24 25 21 18 16 14 15 15 17 15 15 18 15 22 28 30 28 26 22 25 27 24 21 20
35 36 32 30 33 34 28 21 15 12 10 11 14 18 20 21 21 23 24 22 18 19 16 15 13 15 15 17 14 16 16 20 23 29 34 33 33 29 27 25 25 23 22
37 34 32 30 28 23 19 15 12 9 11 14 18 19 20 21 21 22 20 16 17 16 13 12 12 12 13 13 13 17 20 24 27 29 31 34 33 30 27 28 30 24 24
32 29 28 24 21 18 13 10 9 11 14 17 19 19 19 17 16 18 16 16 17 15 14 14 14 11 9 10 14 17 21 25 26 29 34 35 36 33 30 27 27 29 27
34 30 27 23 18 13 10 8 11 13 16 18 17 15 13 12 13 16 14 16 18 17 15 15 14 11 12 12 14 17 21 24 27 30 33 34 33 31 28 27 27 28 31
26 23 21 16 13 10 8 8 11 12 13 13 12 11 10 11 12 11 14 18 19 18 16 16 16 13 11 14 16 16 18 23 28 30 30 31 31 27 25 25 24 25 29
29 22 17 14 8 6 6 8 8 9 10 11 10 9 9 9 11 13 17 18 20 16 16 15 16 14 13 14 19 18 21 25 31 33 28 27 25 23 21 22 25 27 28
21 16 12 9 6 6 7 7 8 8 10 9 9 8 7 9 13 16 19 18 16 15 13 13 13 13 11 16 18 20 25 29 31 34 27 24 22 19 16 17 20 20 22
15 12 8 5 3 3 3 3 5 6 6 7 6 8 10 13 16 18 20 19 18 16 12 11 11 11 12 15 19 22 27 32 36 35 33 28 23 21 18 14 14 15 16
9 6 4 1 2 1 2 3 5 6 6 6 8 11 14 16 16 16 17 17 18 17 16 15 14 12 12 14 18 21 25 30 32 35 36 32 28 25 20 14 12 13 15
7 6 5 5 4 4 3 5 5 6 6 6 6 7 8 10 12 12 10 10 14 15 15 15 16 15 14 16 18 20 23 28 32 35 32 27 28 24 18 13 10 12 14
7 8 7 7 6 6 6 6 7 8 8 10 10 10 10 11 13 13 13 13 14 15 16 18 19 18 16 16 17 19 24 27 32 34 28 24 22 20 17 14 12 11 11
9 11 10 8 7 7 7 7 9 10 12 12 11 12 11 14 17 19 22 21 19 17 18 18 17 14 14 16 16 19 24 28 33 32 24 21 20 19 17 15 14 12 11
13 13 11 9 7 7 7 7 8 10 12 12 13 13 13 13 15 15 19 24 24 22 19 19 17 16 18 21 23 23 26 29 33 28 22 19 20 22 21 15 11 10 11
14 14 12 9 8 8 7 7 8 9 10 12 13 11 10 11 10 12 14 17 19 20 20 22 23 23 25 27 28 28 28 30 31 27 22 20 22 27 22 19 8 7 8
18 18 17 15 13 10 8 7 9 8 9 11 11 12 13 13 11 11 12 15 16 19 26 26 26 27 29 29 28 29 29 31 30 27 23 21 21 22 27 20 12 4 5
17 16 14 14 14 14 13 13 13 13 13 15 15 14 13 12 12 13 13 13 18 22 24 28 26 28 31 29 28 29 28 32 32 28 24 22 23 22 25 24 20 6 2
12 11 10 9 11 13 14 13 13 12 13 14 13 12 13 12 12 12 15 19 22 23 24 26 25 27 29 29 29 29 29 33 35 30 26 24 23 24 23 24 21 16 4
10 9 9 8 7 10 12 12 11 13 13 14 16 16 14 13 15 17 18 20 22 24 25 24 25 27 28 29 29 30 30 34 37 31 27 23 21 20 20 19 18 16 10
9 8 8 7 7 9 11 10 11 12 13 14 14 14 14 16 16 16 18 20 22 24 25 25 27 28 28 29 30 31 32 35 37 33 28 22 20 19 18 18 17 11 9
7 6 6 7 7 8 9 9 9 10 11 12 13 13 12 14 16 17 19 20 22 22 24 25 28 29 30 31 33 32 33 35 36 34 28 23 20 17 16 16 18 14 6
5 5 3 4 6 8 7 7 8 9 10 11 12 13 14 16 17 18 20 21 22 23 24 26 28 29 30 30 31 32 31 34 34 33 29 24 19 16 16 16 17 16 10
4 3 2 4 5 5 5 6 7 8 8 10 12 14 14 15 17 19 21 21 22 23 25 27 28 29 30 31 32 31 27 28 31 31 28 23 19 16 15 16 20 17 15
2 1 1 3 4 5 5 5 6 7 8 9 12 12 13 14 16 18 19 20 22 24 25 26 28 29 30 30 31 31 31 27 27 30 30 24 21 17 15 17 18 18 17
1 1 1 3 4 5 5 5 5 6 7 9 10 11 12 13 15 16 18 19 21 23 24 25 26 27 29 30 31 31 31 32 29 27 29 30 24 19 17 17 16 15 14
Wind_Direction
190 196 185 171 176 174 179 183 189 196 207 234 267 290 305 311 313 314 316 317 320 319 319 319 316 316 321 329 324 317 317 321 316 323 334 337 341 339 344 345 345 331 300
195 172 178 185 180 177 183 187 190 202 220 252 285 303 308 311 314 316 317 320 319 317 318 317 318 316 328 321 329 331 327 336 331 327 329 332 333 339 341 341 339 342 336
172 172 169 164 170 179 184 188 198 216 244 278 299 305 309 316 316 316 318 321 317 320 318 317 319 328 330 324 326 331 336 328 324 325 328 334 333 334 335 333 335 334 333
157 152 151 158 167 176 187 200 218 250 280 296 307 310 315 313 313 314 318 315 324 326 318 315 322 315 320 321 328 330 326 322 328 329 330 331 328 334 332 332 328 330 329
154 162 164 167 179 188 197 217 248 277 296 308 306 311 309 310 310 308 315 323 331 324 316 319 309 301 300 312 318 320 322 323 327 328 326 324 325 327 324 325 321 322 322
163 166 166 172 179 191 211 248 278 291 302 304 302 307 303 304 300 306 321 325 332 332 322 311 318 311 301 310 311 316 323 326 327 326 323 324 325 323 322 318 315 317 318
170 175 172 172 187 201 228 258 283 297 299 301 311 302 288 293 302 313 314 323 332 332 318 314 323 309 293 301 313 319 326 333 332 332 327 324 319 320 317 310 307 306 302
166 165 168 182 197 224 255 279 296 303 307 310 305 293 297 302 298 310 310 322 324 322 319 317 320 305 290 298 315 327 336 340 342 339 331 325 319 316 306 300 298 296 299
156 164 170 182 208 244 271 291 297 305 310 317 319 324 314 301 303 311 316 321 333 342 327 317 311 302 294 307 323 329 336 342 344 341 335 330 325 321 310 303 303 305 305
158 167 177 189 221 265 298 322 346 355 341 336 317 310 311 309 317 321 320 332 336 337 328 315 318 299 296 319 331 335 335 341 343 339 341 332 331 328 322 310 307 305 302
148 139 129 127 100 88 45 36 5 346 319 305 304 307 312 318 323 326 336 333 329 333 331 324 326 318 305 322 333 335 336 337 340 341 341 343 340 335 326 311 293 287 294
124 130 124 130 119 98 46 31 16 4 348 340 337 330 334 341 348 346 335 350 350 344 339 337 336 333 328 327 331 332 334 339 342 343 344 349 347 350 348 332 311 297 286
132 125 127 122 112 82 57 41 27 26 21 22 21 19 17 22 21 16 356 1 0 355 346 338 336 332 329 330 334 338 343 348 348 346 346 347 350 355 351 340 329 318 304
139 121 115 118 103 77 55 46 40 39 33 30 33 38 34 25 21 16 12 11 10 6 356 346 343 344 344 344 347 356 353 355 351 346 342 343 348 355 351 341 331 329 317
129 120 118 114 101 82 64 59 51 41 30 27 29 22 20 21 25 15 12 10 12 14 8 6 11 13 10 6 7 4 358 355 350 345 341 345 350 349 344 338 334 331 329
119 109 103 96 84 75 71 63 52 52 43 27 22 18 13 8 6 18 19 17 13 22 23 24 20 17 17 13 8 2 1 355 353 356 354 352 352 353 355 353 329 343 330
108 99 90 83 80 81 84 82 81 66 32 22 20 13 10 10 13 14 10 9 5 15 27 23 18 16 15 11 8 2 359 357 360 3 2 1 352 355 1 10 3 341 349
112 100 92 81 72 71 68 64 56 44 30 23 19 15 19 25 20 13 11 3 13 22 22 16 13 13 10 7 6 4 360 2 6 8 7 10 10 10 16 16 16 348 344
116 106 95 85 67 54 48 44 39 29 23 21 20 27 38 26 15 11 13 21 20 17 14 13 13 10 7 8 6 5 3 6 9 10 9 12 17 19 19 22 26 30 21
110 109 89 82 63 44 35 32 28 24 22 24 23 30 30 19 21 20 20 22 21 20 18 17 13 10 10 10 8 5 8 10 10 11 11 14 18 26 24 27 25 27 38
96 88 71 65 55 32 27 26 24 22 28 28 29 26 22 17 22 24 25 25 22 21 22 19 16 13 14 15 13 11 11 11 10 9 12 16 20 29 29 27 23 29 36
83 64 46 40 36 29 23 21 20 27 32 34 35 31 30 31 33 34 32 30 29 26 24 23 22 18 18 19 14 14 13 12 10 9 11 15 21 30 27 25 19 16 23
54 35 28 39 31 25 18 27 29 36 40 43 42 42 44 43 41 40 40 36 34 31 28 28 26 24 24 25 20 15 13 13 12 9 9 13 20 22 19 16 21 12 32
18 19 40 30 16 17 34 45 49 47 52 53 49 48 48 48 48 44 43 40 37 33 31 29 29 26 25 27 25 21 16 14 16 16 16 18 25 29 26 40 41 40 53
337 11 27 20 32 44 52 59 65 59 64 63 59 54 50 49 49 46 42 37 33 31 29 28 27 26 25 25 27 23 21 19 15 18 22 26 33 40 50 54 54 53 58
342 8 50 50 58 67 72 74 79 69 61 57 56 52 48 42 40 37 34 31 30 27 25 24 25 24 25 22 24 23 22 23 21 19 25 27 29 38 54 58 51 52 53